CAPE
1 0 0 0 1 3 0 0 0 0 0 0 0 0 0 0 0 0 0 0 0 0 0 0 0 0 0 0 0 0 0 0 0 0 0 0 0 0 0 0 0 1 2 3
0 0 0 0 2 0 22 3 3 0 0 0 0 0 0 0 0 0 0 0 0 0 0 0 0 0 0 0 0 0 0 0 0 0 0 0 0 0 0 0 0 0 1 1
0 0 0 1 0 0 0 0 2 0 0 0 0 0 0 0 0 0 0 0 0 0 0 0 0 0 0 0 0 0 0 0 0 0 0 0 0 0 0 0 0 0 0 0
0 0 3 0 0 1 0 0 0 7 8 4 3 0 0 0 0 0 0 0 0 0 0 0 0 0 0 0 0 0 0 0 0 0 0 0 0 0 0 0 0 0 0 0
8 7 9 0 0 0 0 0 0 0 0 1 0 0 0 0 0 0 0 0 0 0 0 0 0 0 0 0 0 0 0 0 0 0 0 0 0 0 0 0 0 0 0 0
6 7 9 0 0 0 2 0 0 0 0 0 0 0 0 0 0 0 0 0 0 0 0 0 0 0 0 0 0 0 0 0 0 0 0 0 0 0 0 0 0 0 0 0
9 18 7 0 0 12 0 0 0 7 0 0 0 0 0 0 0 0 0 0 0 0 0 0 0 0 0 0 0 0 0 0 0 0 0 0 0 0 0 0 0 0 0 0
11 29 9 0 4 0 2 4 0 0 0 0 0 0 0 0 0 0 0 0 0 0 0 0 0 0 0 0 0 0 0 0 0 0 0 0 0 0 0 0 0 0 0 0
35 3 2 80 137 1 0 0 0 0 0 0 0 0 0 0 0 0 0 0 0 0 0 0 0 0 0 0 0 0 0 0 0 0 0 0 0 0 0 0 0 0 0 3
100 18 126 178 66 0 0 0 0 0 0 0 0 0 0 0 0 0 0 0 0 0 0 0 0 0 0 0 0 0 0 0 0 1 0 0 1 0 1 5 1 1 2 2
98 102 138 50 46 3 0 0 0 0 0 0 0 0 0 0 0 0 0 0 0 0 0 0 0 0 0 0 0 0 0 0 0 2 1 1 2 3 1 4 0 0 2 2
81 103 67 35 7 0 0 0 0 0 0 0 0 0 0 0 0 0 0 0 0 0 0 0 0 0 0 0 0 0 0 0 0 1 1 1 1 0 0 0 0 0 0 0
36 53 0 0 0 11 13 0 0 0 0 0 0 0 0 0 0 0 0 0 0 0 0 0 0 0 0 0 0 0 0 0 0 0 1 1 1 1 2 0 0 0 0 1
11 0 0 0 1 0 0 0 0 0 0 0 0 0 0 0 0 0 0 0 0 0 0 0 0 0 0 0 0 0 0 0 0 1 1 1 1 2 2 2 3 2 2 0
0 0 0 0 0 0 0 0 0 0 0 0 0 0 0 0 0 0 0 0 0 0 0 0 0 0 0 0 0 0 0 0 1 3 2 0 1 1 1 2 2 2 1 1
0 0 0 0 0 0 0 0 0 0 0 0 0 0 0 0 0 0 0 0 0 0 0 0 0 0 0 0 0 0 0 0 0 1 0 0 1 1 1 1 1 2 1 3
0 0 0 0 0 0 0 0 0 0 0 0 0 0 0 0 0 0 0 0 0 0 0 0 0 0 0 0 0 0 0 0 0 0 0 0 0 0 0 1 1 1 1 2
0 0 0 0 0 0 0 0 0 0 0 0 0 0 0 0 0 0 0 0 0 0 0 0 0 0 0 0 0 0 0 0 0 0 0 0 0 0 0 1 1 1 1 1
0 0 0 0 0 0 0 0 0 0 0 0 0 0 0 0 0 0 0 0 0 0 0 0 0 0 0 0 0 0 0 0 0 0 0 0 0 1 1 1 0 1 0 1
0 0 0 0 0 0 0 0 0 0 0 0 0 0 0 0 0 0 0 0 0 0 0 0 0 0 0 0 0 0 0 0 0 0 0 0 1 1 0 0 0 0 1 1
0 0 0 0 0 0 0 0 0 0 0 0 0 0 0 0 0 0 0 0 0 0 0 0 0 0 0 0 0 0 0 1 0 1 1 1 1 1 0 2 2 1 3 1
0 0 0 0 0 0 0 0 0 0 0 0 0 0 0 0 0 0 0 0 0 0 0 0 0 0 0 0 0 0 0 0 0 1 0 1 2 2 1 2 3 3 3 4
0 0 0 0 0 0 0 0 0 0 0 0 0 0 0 0 0 0 0 0 0 0 0 0 0 0 0 0 1 2 2 2 2 2 3 3 4 3 3 2 4 4 5 3
0 0 0 0 0 0 0 0 0 0 0 0 0 0 0 0 0 0 0 0 0 0 0 0 0 0 0 0 3 2 2 3 5 5 4 1 2 3 3 3 4 5 4 3
0 0 0 0 0 0 0 0 0 0 0 0 0 0 0 0 1 0 0 0 0 0 0 0 0 0 0 1 4 8 3 5 5 4 2 2 1 0 2 1 1 1 0 0
0 0 0 0 0 0 0 0 0 0 0 0 0 0 0 0 0 2 2 3 1 0 1 0 0 0 2 3 5 5 5 3 1 4 0 0 1 0 0 0 0 0 0 0
0 0 0 0 0 0 0 0 0 0 0 0 0 1 1 1 1 4 2 4 2 0 2 6 6 0 3 8 10 6 3 1 0 0 0 0 0 0 0 0 0 0 0 0
CIN
-4 0 0 0 -4 -4 0 0 0 0 0 0 0 0 0 0 0 0 0 0 0 0 0 0 0 0 0 0 0 0 0 0 0 0 0 0 0 0 0 0 -1 -2 -2 -2
0 0 0 0 -8 0 -3 -7 -7 0 0 0 0 0 0 0 0 0 0 0 0 -1 0 0 0 0 0 0 0 0 0 0 0 0 0 0 0 0 0 0 0 0 -2 -2
0 0 0 -3 0 0 0 0 -2 -1 0 0 0 0 0 0 0 0 0 0 0 0 0 0 0 0 0 0 0 0 0 0 0 0 0 0 0 0 0 0 0 0 0 0
0 -1 -4 0 0 -4 0 0 -1 -4 -6 -5 -11 0 0 0 0 0 0 0 0 0 0 0 0 0 0 0 0 0 0 0 0 0 0 0 0 0 0 0 0 0 0 0
-2 -4 -5 0 0 0 -3 0 0 0 0 -1 0 0 0 0 0 0 0 0 0 0 0 0 0 0 0 0 0 0 0 0 0 0 0 0 0 0 0 0 0 0 0 0
-3 -1 -3 0 0 0 -27 0 0 0 0 0 0 0 0 0 0 0 0 0 0 0 0 0 0 0 0 0 0 0 0 0 0 0 0 0 0 0 0 0 0 0 0 0
-1 -1 -4 0 0 -20 -1 0 0 -55 0 0 0 0 0 0 0 0 0 0 0 0 0 0 0 0 0 0 0 0 0 0 0 0 0 0 0 0 0 0 0 0 0 0
-2 -2 -1 0 -1 0 -26 -49 0 -29 0 0 0 0 0 0 0 0 0 0 0 0 0 0 0 0 0 0 0 0 0 0 0 0 0 0 0 0 0 0 0 0 0 0
-5 -3 -4 -8 -2 -2 0 0 0 0 0 0 0 0 0 0 0 0 0 0 0 0 0 0 0 0 0 0 0 0 0 0 0 0 0 0 0 0 0 -2 -1 -3 -3 -3
-4 -28 -6 -4 -21 0 0 0 0 0 0 0 0 0 0 0 0 0 0 0 0 0 0 0 0 0 0 0 0 0 0 0 0 -1 0 -1 -1 -1 -2 -1 -1 -2 -2 -2
-6 -14 -3 -6 -16 -4 0 0 0 0 0 0 0 0 0 0 0 0 0 0 0 0 0 0 0 0 0 0 0 0 0 -1 -1 -1 -1 -2 -1 -2 -2 -2 -1 -1 -3 -4
-2 -4 -7 -22 -26 -1 0 0 0 0 0 0 0 0 0 0 0 0 0 0 0 0 0 0 0 0 0 0 0 0 0 0 -1 -1 -1 -1 -2 -2 0 0 0 0 0 -2
-2 -20 -1 0 0 0 0 0 0 0 0 0 0 0 0 0 0 0 0 0 0 0 0 0 0 0 0 0 0 0 0 0 -1 -1 -1 -1 -1 -1 -1 -1 -1 -2 0 -2
-70 0 0 0 -1 0 0 0 0 0 0 0 0 0 0 0 0 0 0 0 0 0 0 0 0 0 0 0 0 0 0 0 -1 -1 -1 -1 -1 -2 -2 -2 -2 -3 -3 -2
0 0 0 0 0 0 0 0 0 0 0 0 0 0 0 0 0 0 0 0 0 0 0 0 0 0 0 0 0 0 -1 -1 -1 -1 -1 -1 -2 -2 -3 -3 -3 -3 -4 -3
0 0 0 0 0 0 0 0 0 0 0 0 0 0 0 0 0 0 0 0 0 0 0 0 0 0 0 0 0 -1 -1 0 0 -1 -1 -1 -1 -2 -2 -3 -3 -3 -4 -3
0 0 0 0 0 0 0 0 0 0 0 0 0 0 0 0 0 0 0 0 0 0 0 0 0 0 0 0 0 0 0 0 0 0 0 0 0 -1 -2 -3 -3 -3 -5 -5
0 0 0 0 0 0 0 0 0 0 0 0 0 0 0 0 0 0 0 0 0 0 0 0 0 0 0 0 0 0 0 0 0 0 0 -2 -1 -2 -3 -3 -3 -3 -5 -5
0 0 -1 0 0 0 0 0 0 0 0 0 0 0 0 0 0 0 0 0 0 0 0 0 0 0 0 0 0 0 0 0 -1 0 0 0 -2 -3 -3 -4 -4 -4 -5 -6
0 0 0 0 0 0 0 0 0 0 0 0 0 0 0 0 0 0 0 0 0 0 0 0 0 0 0 0 0 0 0 0 0 0 -2 0 -3 -2 -4 -6 -4 -6 -5 -6
0 0 0 0 0 0 0 0 0 0 0 0 0 0 0 0 0 0 0 0 0 0 0 0 0 0 0 0 0 0 -1 -1 -1 -1 -2 -3 -3 -4 -4 -4 -4 -5 -5 -5
0 0 0 0 0 0 0 0 0 0 0 0 0 0 0 0 0 0 0 0 0 0 0 0 0 0 0 0 0 -1 -1 -1 -2 -3 -4 -3 -3 -4 -5 -4 -3 -5 -3 -3
0 0 0 0 0 0 0 0 0 0 0 0 0 0 0 0 0 0 0 0 -1 0 0 -1 0 0 0 0 -1 -1 -1 -2 -2 -2 -3 -3 -3 -3 -4 -4 -3 -3 -2 -3
0 0 0 0 0 0 0 0 0 0 0 0 0 0 0 0 0 0 0 0 0 0 0 -5 0 0 0 -1 -1 -1 -1 -2 -1 -2 -2 -3 -3 -2 -3 -4 -3 -2 -2 -2
0 0 0 0 0 0 0 0 0 0 0 0 0 0 0 0 -1 -1 -1 0 0 0 0 0 0 0 0 -1 -1 0 -1 -1 -1 -1 -1 -2 -4 -4 -2 -3 -2 -2 -3 -3
0 0 0 0 0 0 0 0 0 0 0 0 0 0 -1 -1 -1 -1 -1 -2 -2 -1 -2 0 -1 0 -1 -1 -1 -1 -1 -1 -1 -1 0 -1 -2 -1 -1 -2 -2 -2 -2 -1
0 0 0 0 0 0 0 0 0 0 0 -1 0 -1 -1 -2 -1 -1 -1 -1 -2 -2 -1 -1 -1 -1 -1 -1 0 -1 -1 -2 -3 -1 0 0 -1 -1 -1 -1 0 0 0 0
Wind_Speed
44 49 49 49 40 37 39 40 43 44 39 38 34 26 29 32 24 17 16 14 13 11 11 11 12 13 14 16 19 22 23 24 26 27 28 29 31 31 31 31 31 31 31 31
44 45 48 49 44 44 41 41 41 42 46 32 37 41 40 27 21 19 16 14 12 10 10 10 10 11 13 17 20 21 23 24 25 27 28 29 30 30 30 30 31 31 30 30
44 42 43 44 45 48 46 44 43 44 38 35 42 43 32 21 18 18 16 13 11 9 8 8 8 10 13 16 18 20 22 23 25 27 28 29 29 29 31 31 31 30 30 32
40 41 49 41 35 35 39 39 39 39 37 38 41 39 24 22 20 18 12 9 8 7 6 6 8 11 14 16 18 20 22 23 25 26 27 27 28 30 31 32 32 32 32 34
45 42 42 39 34 33 34 38 33 32 32 33 24 21 23 21 17 11 7 6 5 3 4 6 9 12 14 16 18 20 22 24 25 25 26 27 29 31 31 32 32 33 34 35
43 48 47 29 23 21 22 37 30 27 27 24 18 27 27 13 9 5 2 1 1 2 3 6 9 11 14 16 17 20 22 23 23 24 26 28 29 31 32 33 33 35 36 36
42 47 48 46 47 27 33 39 32 24 21 17 15 20 10 6 2 0 1 0 1 2 4 7 9 11 13 15 18 20 21 21 22 25 27 27 29 30 33 33 34 36 37 37
39 42 48 36 39 33 35 33 28 25 20 12 9 4 1 1 1 1 1 1 2 4 6 8 10 11 13 16 17 19 20 21 23 25 26 27 29 31 33 34 35 37 38 38
34 37 33 32 35 28 29 30 28 21 14 8 4 2 1 1 1 2 1 1 3 5 7 10 11 12 14 16 17 18 19 22 23 24 26 28 30 32 33 34 36 37 38 40
32 40 39 34 29 27 25 25 19 14 9 6 5 2 2 2 2 1 1 2 4 5 8 10 11 13 14 15 16 17 20 22 23 23 26 27 29 30 32 33 35 37 39 41
25 33 34 33 28 27 24 19 14 9 6 3 3 2 3 2 1 1 2 3 5 7 8 9 10 12 14 15 16 17 19 20 21 22 25 27 28 29 30 31 32 36 37 39
34 29 28 32 26 23 20 19 17 9 5 3 2 3 2 2 2 2 3 4 6 7 8 9 10 12 14 15 16 18 17 19 21 23 25 27 29 30 28 29 30 31 33 36
40 30 31 33 34 26 18 7 7 5 3 2 2 3 2 3 3 3 4 5 6 6 7 9 11 12 14 15 17 18 18 20 21 22 24 27 29 31 33 32 32 32 33 35
24 27 32 30 29 15 6 3 4 2 1 1 3 3 4 4 4 4 5 7 7 7 9 11 12 13 14 15 16 17 18 20 21 23 24 26 28 30 31 34 36 36 34 36
26 25 17 13 11 5 3 4 4 3 4 4 4 5 4 4 4 5 6 6 7 8 10 10 11 12 13 14 15 16 18 20 22 22 24 26 27 29 31 33 34 35 36 35
18 9 18 1 7 5 6 7 7 7 7 7 5 4 5 5 5 5 5 6 7 8 9 10 10 11 11 12 13 15 17 20 21 23 24 26 27 29 31 33 34 35 36 37
8 14 12 9 7 11 13 11 8 9 7 5 4 5 5 5 5 5 6 7 9 9 8 9 9 9 10 12 13 15 17 19 21 21 24 25 27 29 31 32 33 35 35 33
15 9 13 12 15 14 12 9 8 6 5 5 6 6 5 5 5 5 5 7 9 9 8 9 9 9 10 11 13 15 17 19 20 22 23 25 27 27 30 31 33 34 34 33
7 10 12 11 13 11 8 7 6 6 6 6 6 6 5 6 6 5 5 6 7 9 8 8 8 9 10 11 13 15 17 19 20 21 23 25 25 28 30 31 32 33 33 33
2 6 8 9 8 7 6 6 7 6 6 6 6 6 5 6 6 5 5 7 9 11 7 7 8 9 11 12 13 15 16 18 20 21 23 25 27 29 29 30 31 32 32 32
3 5 6 7 4 3 5 6 6 6 6 6 6 5 5 5 6 6 7 9 10 11 9 8 9 10 10 12 13 14 16 18 19 22 24 25 27 28 30 30 31 31 31 31
3 4 4 4 5 5 5 5 5 5 5 5 5 5 6 7 7 7 8 14 10 8 9 10 10 11 12 12 13 15 16 18 20 22 24 26 28 29 30 31 31 30 31 31
2 3 4 5 5 5 5 6 6 5 5 5 5 5 6 7 6 8 11 11 12 9 10 10 11 11 12 13 14 15 17 18 20 22 24 27 28 29 30 30 30 30 30 30
4 5 6 5 5 5 6 7 7 7 7 7 7 6 7 9 10 10 13 11 11 9 11 12 11 12 12 13 14 16 18 19 21 23 25 27 28 29 31 31 31 30 30 31
6 6 5 5 5 7 7 7 8 8 8 9 9 8 9 11 12 11 13 13 11 11 12 13 13 13 13 14 15 17 19 20 22 24 27 27 29 31 31 32 31 31 31 31
6 6 6 7 8 8 8 7 9 9 9 10 10 10 10 12 13 12 12 12 12 11 13 12 13 13 13 14 16 18 19 21 23 24 27 28 29 31 31 31 31 31 31 31
6 6 7 8 9 9 9 9 10 10 9 10 11 10 10 12 13 12 12 12 13 13 13 14 14 14 15 17 18 19 20 21 23 24 26 28 29 30 30 31 31 30 30 30
Wind_Direction
274 276 278 278 278 280 276 274 274 282 280 283 283 285 285 287 283 271 266 264 268 276 296 291 300 313 324 332 335 338 341 342 343 344 346 345 344 345 346 346 348 349 350 351
278 280 280 279 276 276 277 279 279 279 279 273 284 292 290 276 275 272 266 266 270 273 291 290 300 315 327 331 335 341 341 343 344 345 346 345 346 347 347 348 349 351 353 354
275 279 284 279 272 277 277 277 277 274 275 283 284 283 281 273 272 274 265 264 263 266 284 298 310 323 329 333 340 341 342 344 345 345 345 347 349 349 347 347 349 352 354 354
276 281 276 282 285 285 283 283 281 276 274 281 286 284 277 282 279 277 261 250 253 270 291 309 324 331 335 339 341 342 343 344 345 346 347 350 348 346 346 347 349 350 351 351
271 273 283 286 285 290 287 288 294 284 279 280 284 289 285 290 289 280 251 250 256 278 300 317 329 334 338 340 341 343 344 344 346 348 350 348 344 343 345 346 347 348 348 349
269 268 271 284 305 304 300 293 299 296 284 276 274 279 285 286 291 279 242 193 247 300 320 328 335 340 340 340 342 343 344 346 349 351 347 344 343 343 343 345 346 346 346 347
267 270 272 273 280 285 281 289 299 298 293 286 267 289 297 299 314 119 119 123 71 344 336 342 344 345 342 343 343 345 348 350 351 348 345 346 345 344 344 345 345 346 346 347
272 272 271 279 280 267 285 291 295 292 294 291 292 316 335 341 4 99 105 63 26 355 352 351 349 348 346 343 347 349 351 352 348 347 348 347 346 346 346 346 346 346 347 347
271 276 283 282 284 278 288 291 289 290 297 301 288 250 227 186 145 121 96 31 10 1 356 353 352 349 346 348 351 352 352 347 347 350 349 349 347 347 348 348 348 348 348 348
273 271 278 284 285 288 294 291 297 301 298 284 270 169 174 144 138 114 50 14 7 2 356 354 354 354 354 354 354 353 348 347 349 351 351 351 350 351 351 352 351 350 349 348
283 276 281 284 286 285 288 291 293 299 297 268 179 189 148 135 112 52 25 15 10 358 355 356 0 358 358 356 355 350 348 350 351 352 353 352 353 354 354 355 354 352 351 350
271 288 288 279 292 289 282 281 279 274 261 229 211 165 130 85 63 54 39 20 4 0 3 5 3 360 358 358 353 348 350 351 351 352 353 353 353 354 359 357 356 355 355 353
264 281 276 280 279 293 277 244 239 233 223 160 137 114 91 63 56 51 29 18 9 11 12 6 2 359 1 357 352 350 349 348 350 352 352 352 353 352 350 354 355 357 356 355
278 285 281 291 285 275 263 218 222 208 163 101 98 83 75 48 41 25 13 7 16 16 3 1 359 357 358 355 352 351 350 348 348 349 351 351 352 352 353 351 352 353 356 357
277 282 311 317 289 265 203 158 151 130 104 93 87 82 71 72 48 19 15 21 17 8 2 2 2 0 360 356 354 351 349 345 346 348 350 351 352 353 353 353 353 353 355 357
272 307 299 108 134 164 145 132 123 115 110 101 82 66 62 50 39 36 33 25 14 3 8 6 4 5 5 1 357 353 350 347 347 348 350 351 352 353 353 353 354 354 354 355
271 291 134 131 138 132 132 124 117 116 105 86 73 66 68 63 48 36 24 20 6 10 14 15 11 11 6 0 356 352 349 348 349 349 350 351 352 352 353 353 354 353 354 358
271 130 136 131 132 130 125 114 110 98 89 83 79 75 68 61 39 38 33 17 13 16 14 12 12 8 2 358 353 351 350 349 350 350 351 352 353 354 353 353 353 353 354 355
272 115 120 120 124 120 111 104 94 86 74 82 80 72 55 34 42 43 40 26 11 0 357 5 5 2 357 354 353 352 350 350 350 351 351 352 352 352 352 352 353 353 354 354
45 89 98 106 103 104 99 86 82 70 72 72 67 61 55 46 51 43 24 3 356 350 5 1 358 354 351 352 350 349 350 350 350 350 351 350 350 350 351 352 352 353 353 354
83 85 93 96 79 55 68 79 82 78 75 80 85 71 45 29 19 10 358 348 347 352 357 357 351 349 348 349 348 348 348 348 349 348 348 348 348 349 349 350 351 351 352 352
65 81 75 73 80 65 49 42 35 46 48 46 26 22 14 1 356 352 349 343 353 352 349 346 343 344 346 346 345 346 346 346 346 347 346 346 346 346 347 348 348 349 349 350
44 52 65 73 69 54 30 13 19 25 29 25 20 11 1 357 356 346 338 339 347 346 344 342 345 345 341 341 342 343 343 343 343 344 344 344 344 345 345 345 346 346 347 347
58 61 62 49 47 34 19 13 14 12 14 12 5 4 0 353 347 342 342 343 341 344 340 341 342 340 339 339 339 339 340 341 341 342 343 343 344 344 344 345 345 345 345 345
64 58 49 46 25 5 15 20 14 10 6 357 355 354 350 347 343 343 344 345 342 339 336 339 338 338 337 336 336 338 339 339 340 341 341 342 343 343 344 345 345 345 345 345
55 33 25 8 6 15 17 18 359 358 356 352 351 348 346 346 346 347 344 344 342 335 335 339 337 335 335 336 337 338 339 339 340 341 342 342 343 343 344 345 345 345 345 346
13 19 17 8 3 2 358 356 354 352 353 352 349 350 349 347 346 345 343 341 338 338 335 335 338 338 336 337 339 339 340 340 342 343 343 343 344 344 345 345 346 346 347 347